Stations météo

Publicité
Kinlochewe, Grande-Bretagne (99092): Température de l'air & dewpoint: 19.06.2018 14:00:00 - 25.06.2018 14:00:00 (BST)Kinlochewe, Grande-Bretagne (99092): Température de l'air -20cm: 19.06.2018 14:00:00 - 25.06.2018 14:00:00 (BST)Kinlochewe, Grande-Bretagne (99092): Quantités de précipitations: 19.06.2018 14:00:00 - 25.06.2018 14:00:00 (BST)
Date & Time tt [°C] td [°C] tt -20cm [°C] rr [mm]
25.06.2018 14:00:00 18,7 10,7 - -
25.06.2018 13:00:00 18,5 11,1 - 0,0
25.06.2018 12:00:00 17,7 10,2 - 0,0
25.06.2018 11:00:00 17,1 10,1 - 0,0
25.06.2018 10:00:00 16,4 8,9 13,2 0,0
25.06.2018 09:00:00 15,2 7,0 - 0,0
25.06.2018 08:00:00 13,3 7,5 - 0,0
25.06.2018 07:00:00 10,5 9,9 - 0,0
25.06.2018 06:00:00 5,3 4,4 - 0,0
25.06.2018 05:00:00 7,0 5,7 - 0,0
25.06.2018 04:00:00 7,1 5,9 - 0,0
25.06.2018 03:00:00 6,9 5,6 - 0,0
25.06.2018 02:00:00 5,6 5,0 - 0,0
25.06.2018 01:00:00 6,8 6,1 - 0,0
25.06.2018 00:00:00 7,8 6,9 - 0,0
24.06.2018 23:00:00 8,9 7,2 - 0,0
24.06.2018 22:00:00 12,6 8,3 - 0,0
24.06.2018 21:00:00 14,8 8,1 - 0,0
24.06.2018 20:00:00 16,9 8,9 - 0,0
24.06.2018 19:00:00 17,1 8,6 - 0,0
24.06.2018 18:00:00 18,1 9,2 - 0,0
24.06.2018 17:00:00 18,4 9,0 - 0,0
24.06.2018 16:00:00 18,8 10,0 - 0,0
24.06.2018 15:00:00 18,4 8,2 - 0,0
24.06.2018 14:00:00 18,0 8,5 - 0,0
24.06.2018 13:00:00 17,0 7,9 - 0,0
24.06.2018 12:00:00 16,9 8,7 - 0,0
24.06.2018 11:00:00 15,0 7,3 - 0,0
24.06.2018 10:00:00 15,1 7,9 12,9 0,0
24.06.2018 09:00:00 13,7 7,0 - 0,0
24.06.2018 08:00:00 12,5 7,3 - 0,0
24.06.2018 07:00:00 11,0 7,2 - 0,0
24.06.2018 06:00:00 10,4 6,5 - 0,0
24.06.2018 05:00:00 11,0 6,8 - 0,0
24.06.2018 04:00:00 11,4 7,4 - 0,0
24.06.2018 03:00:00 11,3 8,1 - 0,0
24.06.2018 02:00:00 11,8 8,5 - 0,0
24.06.2018 01:00:00 12,1 8,8 - 0,0
24.06.2018 00:00:00 12,1 9,1 - 0,0
23.06.2018 23:00:00 12,2 9,6 - 0,0
23.06.2018 22:00:00 12,6 9,9 - 0,0
23.06.2018 21:00:00 13,0 9,8 - 0,0
23.06.2018 20:00:00 12,9 10,2 - 0,0
23.06.2018 19:00:00 13,0 10,1 - 0,0
23.06.2018 18:00:00 12,7 10,4 - 0,0
23.06.2018 17:00:00 13,1 10,3 - 0,0
23.06.2018 16:00:00 13,7 9,7 - 0,0
23.06.2018 15:00:00 13,2 9,8 - 0,0
23.06.2018 14:00:00 13,0 9,4 - 0,0
23.06.2018 13:00:00 13,3 9,3 - 0,0
23.06.2018 12:00:00 14,0 9,2 - 0,0
23.06.2018 11:00:00 14,1 8,0 - 0,0
23.06.2018 10:00:00 14,6 7,1 13,0 0,0
23.06.2018 09:00:00 13,4 7,8 - 0,0
23.06.2018 08:00:00 12,7 7,2 - 0,0
23.06.2018 07:00:00 11,8 7,0 - 0,0
23.06.2018 06:00:00 11,6 6,6 - 0,0
23.06.2018 05:00:00 11,1 6,7 - 0,0
23.06.2018 04:00:00 11,1 6,4 - 0,0
23.06.2018 03:00:00 11,0 6,3 - 0,0
23.06.2018 02:00:00 11,1 6,4 - 0,0
23.06.2018 01:00:00 11,3 7,1 - 0,0
23.06.2018 00:00:00 11,0 8,0 - 0,0
22.06.2018 23:00:00 11,3 7,8 - 0,0
22.06.2018 22:00:00 11,3 8,2 - 0,0
22.06.2018 21:00:00 11,9 8,5 - 0,0
22.06.2018 20:00:00 12,8 8,2 - 0,0
22.06.2018 19:00:00 13,6 6,1 - 0,0
22.06.2018 18:00:00 13,8 10,1 - 0,6
22.06.2018 17:00:00 12,0 8,3 - 0,0
22.06.2018 16:00:00 13,7 8,7 - 0,0
22.06.2018 15:00:00 14,9 9,3 - 0,0
22.06.2018 14:00:00 15,0 7,6 - 0,0
22.06.2018 13:00:00 15,9 8,2 - 0,0
22.06.2018 12:00:00 12,7 7,1 - 0,0
22.06.2018 11:00:00 14,3 8,1 - 0,0
22.06.2018 10:00:00 11,8 9,1 13,0 0,0
22.06.2018 09:00:00 10,2 8,8 - 0,0
22.06.2018 08:00:00 10,2 7,5 - 0,0
22.06.2018 07:00:00 10,4 6,8 - 0,0
22.06.2018 06:00:00 10,0 5,6 - 0,0
22.06.2018 05:00:00 9,7 5,1 - 0,0
22.06.2018 04:00:00 10,1 5,5 - 0,0
22.06.2018 03:00:00 10,0 6,1 - 0,0
22.06.2018 02:00:00 9,9 6,2 - 0,0
22.06.2018 01:00:00 10,0 6,0 - 0,0
22.06.2018 00:00:00 10,2 6,3 - 0,0
21.06.2018 23:00:00 10,6 6,9 - 0,0
21.06.2018 22:00:00 10,7 6,6 - 0,0
21.06.2018 21:00:00 11,3 6,3 - 0,0
21.06.2018 20:00:00 11,9 6,3 - 0,0
21.06.2018 19:00:00 12,1 6,2 - 0,0
21.06.2018 18:00:00 13,3 6,1 - 0,0
21.06.2018 17:00:00 13,1 6,6 - 0,0
21.06.2018 16:00:00 12,9 5,8 - 0,0
21.06.2018 15:00:00 14,2 5,9 - 0,0
21.06.2018 14:00:00 14,4 6,7 - 0,0
21.06.2018 13:00:00 14,2 6,6 - 0,0
21.06.2018 12:00:00 13,4 6,1 - 0,0
21.06.2018 11:00:00 13,0 7,1 - 0,0
21.06.2018 10:00:00 11,2 7,3 12,7 0,0
21.06.2018 09:00:00 9,9 6,1 - 0,0
21.06.2018 08:00:00 10,1 6,3 - 0,0
21.06.2018 07:00:00 8,9 6,7 - 0,4
21.06.2018 06:00:00 9,0 6,3 - 0,0
21.06.2018 05:00:00 8,5 6,1 - 0,2
21.06.2018 04:00:00 8,5 6,0 - 0,0
21.06.2018 03:00:00 8,2 6,3 - 0,0
21.06.2018 02:00:00 7,6 6,5 - 0,2
21.06.2018 01:00:00 7,4 5,8 - 0,2
21.06.2018 00:00:00 7,1 6,7 - 0,6
20.06.2018 23:00:00 6,4 6,0 - 1,4
20.06.2018 22:00:00 6,2 5,5 - 2,8
20.06.2018 21:00:00 6,7 5,2 - 3,6
20.06.2018 20:00:00 9,1 6,4 - 0,4
20.06.2018 19:00:00 9,6 7,4 - 1,0
20.06.2018 18:00:00 11,5 7,9 - 0,8
20.06.2018 17:00:00 12,6 7,4 - 1,6
20.06.2018 16:00:00 10,6 8,1 - 0,8
20.06.2018 15:00:00 10,8 6,1 - 0,2
20.06.2018 14:00:00 13,5 4,9 - 0,0
20.06.2018 13:00:00 13,6 7,3 - 0,0
20.06.2018 12:00:00 14,6 7,9 - 0,0
20.06.2018 11:00:00 12,6 7,4 - 0,0
20.06.2018 10:00:00 10,0 7,7 12,7 0,6
20.06.2018 09:00:00 10,8 7,8 - 0,0
20.06.2018 08:00:00 10,2 8,0 - 0,0
20.06.2018 07:00:00 9,2 8,8 - 0,6
20.06.2018 06:00:00 8,1 7,6 - 2,4
20.06.2018 05:00:00 7,9 7,7 - 0,4
20.06.2018 04:00:00 7,9 7,5 - 0,8
20.06.2018 03:00:00 8,0 7,3 - 0,6
20.06.2018 02:00:00 8,0 7,1 - 0,0
20.06.2018 01:00:00 8,2 7,0 - 0,0
20.06.2018 00:00:00 8,9 6,8 - 0,0
19.06.2018 23:00:00 9,9 6,4 - 0,0
19.06.2018 22:00:00 10,6 6,5 - 0,0
19.06.2018 21:00:00 11,1 6,7 - 0,0
19.06.2018 20:00:00 12,1 6,9 - 0,0
19.06.2018 19:00:00 11,9 6,4 - 0,0
19.06.2018 18:00:00 13,1 5,7 - 0,0
19.06.2018 17:00:00 12,9 4,8 - 0,0
19.06.2018 16:00:00 14,6 5,2 - 0,0
19.06.2018 15:00:00 15,4 5,6 - 0,0
19.06.2018 14:00:00 14,3 6,0 - 0,0

tt = Température de l'air
td = dewpoint
tt -20cm = Température de l'air -20cm
rr = Quantités de précipitations

stations d'obs. à proximité